Location: Leeds
(37.2390°N, 113.3580°W)
Time: 02:40:44
(UTC-06:00)

ISS - All Passes

Search period start: 25 June 2016 00:00
Search period end: 05 July 2016 00:00
Orbit: 402 x 403 km, 51.6° (Epoch: 25 June)

Date Brightness Start Highest point End Pass type
(mag) Time Alt. Az. Time Alt. Az. Time Alt. Az.
25 Jun - 10:42:28 10° SW 10:45:43 90° WNW 10:48:59 10° NE daylight
25 Jun - 12:20:41 10° WNW 12:22:34 14° NNW 12:24:28 10° NNE daylight
25 Jun - 15:37:30 10° N 15:38:02 10° NNE 15:38:34 10° NNE daylight
25 Jun - 17:12:02 10° NW 17:15:10 43° NE 17:18:18 10° ESE daylight
25 Jun - 18:49:15 10° W 18:51:21 16° SW 18:53:26 10° S daylight
26 Jun - 09:49:58 10° SSW 09:53:03 40° SE 09:56:08 10° ENE daylight
26 Jun - 11:27:00 10° W 11:29:36 21° NNW 11:32:12 10° NNE daylight
26 Jun - 16:19:32 10° NNW 16:22:18 24° NNE 16:25:03 10° E daylight
26 Jun - 17:55:48 10° WNW 17:58:46 32° SW 18:01:43 10° SSE daylight
27 Jun - 08:58:01 10° S 09:00:26 20° SE 09:02:53 10° E daylight
27 Jun - 10:33:39 10° WSW 10:36:42 36° NW 10:39:45 10° NE daylight
27 Jun - 15:27:13 10° NNW 15:29:21 16° NNE 15:31:28 10° ENE daylight
27 Jun - 17:02:51 10° NW 17:06:06 72° SW 17:09:20 10° SE daylight
28 Jun - 09:40:38 10° SW 09:43:53 72° NW 09:47:09 10° NE daylight
28 Jun - 11:19:13 10° NW 11:20:49 13° NNW 11:22:25 10° N daylight
28 Jun - 14:35:10 10° N 14:36:17 11° NNE 14:37:23 10° NE daylight
28 Jun - 16:10:08 10° NW 16:13:20 53° NE 16:16:32 10° ESE daylight
28 Jun - 17:47:51 10° W 17:49:26 13° SW 17:51:00 10° SSW daylight
29 Jun - 08:47:58 10° SSW 08:51:09 51° SE 08:54:20 10° ENE daylight
29 Jun - 10:25:22 10° WNW 10:27:47 19° NNW 10:30:12 10° NNE daylight
29 Jun - 15:17:34 10° NNW 15:20:29 28° NNE 15:23:21 10° E daylight
29 Jun - 16:54:03 10° WNW 16:56:51 26° SW 16:59:37 10° S daylight
30 Jun - 07:55:48 10° S 07:58:29 24° SE 08:01:11 10° ENE daylight
30 Jun - 09:31:54 10° W 09:34:50 30° NNW 09:37:47 10° NNE daylight
30 Jun - 14:25:09 10° NNW 14:27:30 18° NNE 14:29:50 10° ENE daylight
30 Jun - 16:00:58 10° WNW 16:04:11 57° SW 16:07:23 10° SE daylight
01 Jul - 07:04:38 10° SSE 07:05:54 12° SE 07:07:11 10° ESE daylight
01 Jul - 08:38:45 10° WSW 08:41:58 58° NW 08:45:11 10° NE daylight
01 Jul - 10:17:43 10° NW 10:18:58 12° NNW 10:20:14 10° N daylight
01 Jul - 13:32:58 10° N 13:34:27 12° NNE 13:35:55 10° NE daylight
01 Jul - 15:08:09 10° NW 15:11:25 66° NE 15:14:39 10° ESE daylight
01 Jul - 16:46:51 10° WSW 16:47:25 10° SW 16:47:59 10° SW daylight
02 Jul - 07:45:57 10° SW 07:49:10 66° SE 07:52:25 10° NE daylight
02 Jul - 09:23:41 10° WNW 09:25:54 17° NNW 09:28:07 10° NNE daylight
02 Jul - 14:15:32 10° NNW 14:18:32 33° NE 14:21:33 10° E daylight
02 Jul - 15:52:16 10° W 15:54:50 21° SW 15:57:22 10° S daylight
03 Jul - 06:53:34 10° SSW 06:56:27 30° SE 06:59:21 10° ENE daylight
03 Jul - 08:30:05 10° W 08:32:53 26° NNW 08:35:42 10° NNE daylight
03 Jul - 13:23:03 10° NNW 13:25:34 20° NNE 13:28:06 10° E daylight
03 Jul - 14:59:01 10° WNW 15:02:09 45° SW 15:05:16 10° SSE daylight
04 Jul - 06:01:55 10° SSE 06:03:49 15° SE 06:05:43 10° E daylight
04 Jul - 07:36:48 10° WSW 07:39:57 47° NW 07:43:08 10° NE daylight
04 Jul - 09:16:15 10° NNW 09:17:03 11° NNW 09:17:52 10° N daylight
04 Jul - 12:30:44 10° N 12:32:31 14° NNE 12:34:17 10° NE daylight
04 Jul - 14:06:06 10° NW 14:09:23 82° NE 14:12:38 10° SE daylight
